Timeline UpdatesTrip UpdatesNews PostsPvt PostsTravel TipsAdmin PostsConv PostsFollowed PostsChat RequestsBlog PostsPNR Posts

Disclaimer
Search
 
 
Sun Sep 21, 2014 07:36:05 ISTHomeTrainsΣChainsAtlasPNRForumGalleryNewsFAQTripsMembersLoginFeedback
No Recent News for this Train
Other Trains in the News **new
Latest...
.
Sun Jun 17, 2012 (02:11PM)
⇐ Return Journey: Train# 17610

17609/Patna - Purna Express

Time-Table HAS CHANGED.
Sep 01 (10:53PM)
Change Departure Station:
Change Arrival Station:
Post a Train Travel TipPost a Train Travel Tip **new
Post a Comment/Question/Picture/VideoPost a Comment/Question/Picture/Video
Pantry/Catering
✓ Pantry Car Avbl
✓ Catering Avbl
RSA - Rake Sharing
Rake/Coach Composition
WDM; SLR; GEN; A1; B1; PC; S1; S2; S3; S4; S5; GEN; SLR
Loco
WDM#3a
News    PNR    Forum    Time-Table    Availability    Fare Chart    Map    Arr/Dep History    Trips    Gallery    ΣChains    X/O    Timeline    
Travel Time: 0h 52m    0 halts    Distance: 49 km    Avg Speed: 56 km/hr
Type: Mail/Express
Zone: SCR/South Central
Departs @ 23:00
Platform# ???
S      
Patna Junction/PNBE 
Arrives @ 23:52
Platform# ???
S      
Ara Junction/ARA 

0 halts. 12 intermediate Stations between Patna Junction and Ara Junction

Hide intermediate Stations  Show Old Time-Table

#CodeStation NameX/OArrivesAvgDepartsAvgHaltPFDay#KmSpeedElevZoneAddress
1PNBEPatna Junction (10)»  -23:10 23:00---10.05657mECRPatna 800001, Bihar
1.1SCYSachiwalay Halt (2)  23:02-23:02-  12.2 5657mECRPatna, Bihar
1.2PWSPhulwari Sharif (3)  23:06-23:06-  16.0 5658mECRPatna, Bihar
1.3DNRDanapur (5)X  23:10-23:10-  19.4 5658mECRKhagaul, Bihar
1.4NEONeora (2)  23:16-23:16-  115.4 5661mECRNational Highway 98, Bihar
1.5GNHIGandhi Halt  23:20-23:20-  118.4 5658mECRPatna, Bihar
1.6SDESadisopur (2)  23:24-23:24-  122.5 5664mECRSadisopur, Bihar
1.7PATLPatel Halt  23:26-23:26-  124.7 5661mECRPatna, Bihar
1.8BTABihta (2)  23:28-23:28-  126.7 5662mECRDistt: Patna, Bihar
1.9VHCHChakki Block Cabin  23:35-23:35-  133.0 5663mECRNational Highway 30, Bihar
1.10KWRKoelwar (2)X  23:38-23:38-  135.5 5665mECRNational Highway 30, Bihar
1.11KUAKulharia (2)  23:41-23:41-  139.0 5661mECRChandi Sahar Rd, Bihar
1.12JMIRJamira  23:47-23:47-  144.0 56 ECRPatna, Bihar
2ARAAra Junction (3)•X  23:52-23:54-2m--148.96463mECRarrah( 06182-233411), Bihar
2.1JGWLJagjivan  23:57-23:57-  152.1 6459mECRBuxar, Bihar
2.2KRSKarisath (2)  00:03-00:03-  258.9 6465mECRKarisath, Bihar
2.3KYAKauriya  00:07-00:07-  262.5 6461mECRBuxar, Bihar
2.4XSANSarvodaya Halt  00:09-00:09-  264.5 6463mECRBuxar, Bihar
2.5RNTERamanand Tewary  00:10-00:10-  266.5 6463mECRBuxar, Bihar
2.6BEABihiya (3)  00:14-00:14-  270.4 6467mECRBehea, Bihar
2.7ASJPAmar Shahid Jagdev Prasad Halt  00:18-00:18-  274.2 6463mECRArrah Buxar Rd, Bihar
2.8BYNBanahi (2)  00:20-00:20-  276.3 6467mECRBanahi, Bihar
2.9SKRISikaria  00:23-00:23-  280.2 6463mECRKuawan Tikathi Rd, Bihar
2.10RPRRaghunathpur (4)  00:28-00:28-  285.1 6469mECRRaghunathpur, Bihar
2.11VKDHVeer Kunwar Singh Dharauli Halt  00:32-00:32-  289.4 6465mECRArrah Buxar Rd, Bihar
2.12TWGTwining GanjX  00:36-00:36-  293.5 6470mECRArrah Buxar Rd, Bihar
2.13DUREDumraon (3)  00:43-00:43-  2101.1 6470mECRDumraon, Bihar
2.14BUEBaruna  00:49-00:49-  2108.2 6465mECRArrah Buxar Rd, Bihar
3BXRBuxar (3)  00:58-01:00-2m--2117.44867mECRBuxar, Bihar
3.1PWXPPawani Kumarpur Halt  01:11-01:11-  2126.3 4866mECRSukarwallia Rd, Bihar
3.2CSAChausa (2)  01:14-01:14-  2128.4 4868mECRState Highway 14, Bihar
3.3BQWBarakalanX  01:21-01:21-  2134.3 4868mECRState Highway 14, Bihar
3.4GMRGahmar (2)  01:25-01:25-  2137.6 4868mECRDistt: Ghazipur, Uttar Pradesh
3.5KKRHKarahiaX  01:30-01:30-  2141.7 4872mECRPhooli Rd, Uttar Pradesh
3.6BWHBhadaura (2)  01:35-01:35-  2145.8 4869mECRGhazipur, Uttar Pradesh
3.7USKUsia Khas  01:40-01:40-  2149.4 4869mECRDildarnagar, Uttar Pradesh
3.8DLNDildarnagar Junction (2)  01:45-01:45-  2153.6 4872mECRDildarnagar, Uttar Pradesh
3.9DRVDarauli (2)X  01:54-01:54-  2160.7 4870mECRDarauli, Uttar Pradesh
3.10ZNAZamania (2)  02:02-02:02-  2167.1 4877mECRGhazipur, Uttar Pradesh
3.11BHCLBahora Chandil  02:08-02:08-  2172.1 4872mECRDhanapur Avahi Rd, Uttar Pradesh
3.12DHADheena  02:17-02:17-  2179.5 4874mECRDheena, Uttar Pradesh
3.13TLAMTulsi AshramX  02:26-02:26-  2186.8 4877mECRState Highway 69, Uttar Pradesh
3.14SLDSakaldiha (2)  02:34-02:34-  2193.1 4881mECRState Highway 69, Uttar Pradesh
3.15KCAKuchman (2)  02:44-02:44-  2200.8 4879mECRKuchman, Uttar Pradesh
3.16EOCMEOCM  02:46-02:46-  2202.7 4879mECRChandauli Mjhwr, Uttar Pradesh
3.17MGMYMughal Sarai Marshalling Yard  02:54-02:54-  2208.6 4881mECRMughalsarai, Uttar Pradesh
4MGSMughal Sarai Junction (8)  02:52 02:57-03:07-15 10m--2211.46683mECRMughalsarai 232101, Uttar Pradesh
4.1NEWCNew West CabinX  03:08-03:08-  2212.6 6680mECRMughal Sarai, Uttar Pradesh
4.2JEPJeonathpur (2)X  03:14-03:14-  2219.2 6683mNCRVaranasi, Uttar Pradesh
4.3ARWAhraura Road (4)X  03:20-03:20-  2225.1 6685mNCRDist. Mirzapur - 231305, Uttar Pradesh
4.4KYTKailahat (4)  03:27-03:27-  2233.6 6683mNCRKailahat, Uttar Pradesh
4.5CARChunar Junction (5)X  03:36-03:36-  2243.3 6685mNCRChunar Junction, Uttar Pradesh
4.6DAPDagmagpurX  03:43-03:43-  2250.7 6688mNCRDagmagpur, Uttar Pradesh
4.7PREPaharaX  03:50-03:50-  2258.7 6687mNCRNational Highway 7, Uttar Pradesh
4.8JHGJhingura  03:57-03:57-  2266.2 6685mNCRNational Highway 7, Uttar Pradesh
4.9MZPMirzapur (3)  04:05-04:05-  2274.5 6688mNCRMirzapur, Uttar Pradesh
4.10BDLVindhyachal (3)  04:11-04:11-  2281.9 6688mNCRMirzapur, Uttar Pradesh
4.11BEOBirohe  04:16-04:16-  2286.6 6683mNCRNational Highway 76, Uttar Pradesh
4.12GAEGaipura (4)X  04:23-04:23-  2294.2 6686mNCRGaipura, Uttar Pradesh
4.13JIAJigna (1)  04:29-04:29-  2301.0 6694mNCRNational Highway 76, Uttar Pradesh
4.14MNFManda Road  04:37-04:37-  2309.4 6693mNCRNH 76, Uttar Pradesh
4.15UNDUnchdihX  04:44-04:44-  2317.5 6694mNCRUnchdih, Uttar Pradesh
4.16MJAMeja Road (4)  04:51-04:51-  2325.6 6694mNCRDistrict Allahabad, Uttar Pradesh
4.17BEPBheerpur  05:02-05:02-  2336.9 6694mNCRNH 76, Uttar Pradesh
4.18KCNKarchana  05:10-05:10-  2346.0 6694mNCRKarchana, Uttar Pradesh
4.19COIChheoki Junction (3)X  05:18-05:18-  2355.0 6696mNCRDist.-Allahabad, Uttar Pradesh
4.20NYNNaini Junction (4)  05:20-05:20-  2356.6 6698mNCRAllahabad, Uttar Pradesh
4.21LKJNLink Junction Cabin  05:24-05:24-  2361.1 6694mNCRAllahabad, Uttar Pradesh
4.22IDGJIradatganj (3)X  05:28-05:28-  2366.0 6699mNCRAllahabad, Uttar Pradesh
4.23JSRJasra (2)  05:34-05:34-  2372.2 6697mNCRJasra, Uttar Pradesh
4.24MFXMadaraha  05:39-05:39-  2377.8 66103mNCRNational Highway 76, Uttar Pradesh
4.25LOGLohgara (2)X  05:45-05:45-  2384.1 66112mNCRLohgara, Uttar Pradesh
4.26SRJShankargarh (3)  05:54-05:54-  2394.0 66132mNCRShankargarh, Uttar Pradesh
4.27MJHRMajhiari  06:03-06:03-  2403.7 66145mNCRNational Highway 76, Uttar Pradesh
4.28BRGBargarh  06:09-06:09-  2410.8 66166mNCRBargarh, Uttar Pradesh
4.29KTDDKataiya DandiX  06:14-06:14-  2416.3 66168mNCRKataiya, Uttar Pradesh
4.30DBRDabhaura (2)  06:23-06:23-  2426.5 66201mNCRDabhaura, Uttar Pradesh
4.31PNHIPanhaiX  06:33-06:33-  2436.9 66214mNCRManikpur, Uttar Pradesh
4.32MKPManikpur Junction (4)  06:44-06:44-  2449.0 66250mNCRManikpur, Uttar Pradesh
4.33BNSPBansapahar (1)  06:47-06:47-  2452.5 66253mWCRBansapahar, Uttar Pradesh
4.34BQFBarah MuafiX  06:51-06:51-  2456.9 66264mWCRBarahmuafi, Uttar Pradesh
4.35MKDMarkundi  06:59-06:59-  2464.9 66270mWCRState Highway 11, Madhya Pradesh
4.36TKYRTikaria (2)X  07:06-07:06-  2472.8 66268mWCRMDR 11, Madhya Pradesh
4.37EDAItwan DundailaX  07:13-07:13-  2480.4 66320mWCRMajhgawa, Madhya Pradesh
4.38MJGMajhagawan  07:18-07:18-  2485.9 66343mWCRMajhgawa, Madhya Pradesh
4.39CTHRChitahra  07:23-07:23-  2491.7 66367mWCRMDR 11, Madhya Pradesh
4.40KTHAKhutahaX  07:30-07:30-  2499.2 66332mWCRMDR 11, Madhya Pradesh
4.41JTWJaitwar (2)X  07:37-07:37-  2506.7 66321mWCRJaitwar, Madhya Pradesh
4.42HATIHati  07:41-07:41-  2511.5 66310mWCRBhad, Madhya Pradesh
4.43SAGMSagma (1)  07:49-07:49-  2520.5 66337mWCRSatna, Madhya Pradesh
5STASatna Junction (3)X  07:55-08:05-10m12526.784322mWCRSatna, Madhya Pradesh
5.1LGCELagargawan (2)  08:13-08:13-  2538.3 84319mWCRLagargawan, Madhya Pradesh
5.2UHRUnchhera (2)  08:20-08:20-  2547.9 84331mWCRUnchhera, Madhya Pradesh
5.3MYRMaihar (3)  08:30-08:30-  2562.1 84353mWCRMaihar Railway Station, Madhya Pradesh
5.4BUUBhadanpur (2)  08:40-08:40-  2575.6 84362mWCRNational Highway 7, Madhya Pradesh
5.5UDRAmdara (2)  08:49-08:49-  2588.2 84376mWCRNational Highway 34, Madhya Pradesh
5.6PKRDPakara Road (2)  08:56-08:56-  2597.9 84381mWCRPakara, Madhya Pradesh
5.7JKEJukehi (3)  09:03-09:03-  2607.7 84402mWCRJukehi, Madhya Pradesh
5.8PTWAPatwara (2)  09:09-09:09-  2616.1 84398mWCRNational Highway 34 Distric Katni Madhya Pradesh, Madhya Pradesh
6KTEKatni Junction (6)X  09:15-09:20-5m--2625.155387mWCRKatni, Madhya Pradesh
6.1KTESKatni South  09:22-09:22-  2627.0 55386mWCRKatni, Madhya Pradesh
6.2MDRRMadhavnagar Road (2)  09:26-09:26-  2630.3 55398mWCRMadhavnagar, Madhya Pradesh
6.3NWRNiwar (2)  09:34-09:34-  2638.2 55412mWCRPipraundh, Madhya Pradesh
6.4SNRRSansarpur (2)  09:43-09:43-  2646.0 55436mWCRNational Highway 7, Madhya Pradesh
6.5SBDSleemanabad Road (2)  09:51-09:51-  2652.9 55434mWCRSleemanabad, Madhya Pradesh
6.6DDCEDundi (2)X  10:01-10:01-  2662.4 55415mWCRDundi, Madhya Pradesh
6.7SHRSihora Road (2)X  10:18-10:18-  2677.3 55388mWCRJabalpur, Madhya Pradesh
6.8GSPRGosalpur (2)X  10:30-10:30-  2688.4 55396mWCRJabalpur, Madhya Pradesh
6.9DOEDeori (2)  10:41-10:41-  2699.0 55392mWCRJabalpur, Madhya Pradesh
6.10ADTLAdhartal (2)  10:51-10:51-  2707.8 55393mWCRJabalpur, Madhya Pradesh
7JBPJabalpur Junction (4)  10:50 11:00-11:00 11:10-10m12715.970416mWCRJabalpur, Madhya Pradesh
7.1HBGHowbagh Jabalpur (2)  11:12-11:12-  2718.0 70405mSECRJabalpur, Madhya Pradesh
7.2MMLMadan Mahal (3)  11:13-11:13-  2719.2 70428mWCRJabalpur, Madhya Pradesh
7.3KEQKachhpura (2)  11:14-11:14-  2721.0 70392mWCRJabalpur, Madhya Pradesh
7.4BRGTBheraghat (2)  11:24-11:24-  2732.4 70389mWCRBheraghat, Madhya Pradesh
7.5BHTNBhitoni (2)  11:35-11:35-  2745.5 70377mWCRJabalpur, Madhya Pradesh
7.6BMRBikrampur (2)X  11:45-11:45-  2757.1 70353mWCRBikrampur Dist Narsingpur., Madhya Pradesh
7.7SRIDShridham (3)X  11:55-11:55-  2768.8 70373mWCRShridham, Madhya Pradesh
7.8KKBKarak Bel (2)  12:09-12:09-  2784.3 70375mWCRKarak Bel, Madhya Pradesh
7.9BELDBelkhera (2)  12:12-12:12-  2788.7 70367mWCRState Highway 22, Madhya Pradesh
7.10GPCGhatpindrai (2)X  12:17-12:17-  2794.2 70366mWCRGhatpindra, Madhya Pradesh
7.11NUNarsinghpur (2)  12:22-12:22-  2800.0 70365mWCRNarsimhapur, Madhya Pradesh
7.12KYKareli (2)X  12:36-12:36-  2815.8 70361mWCRKareli, Madhya Pradesh
7.13KFYKarapgaon (2)X  12:43-12:43-  2824.4 70363mWCRNational Highway 26, Madhya Pradesh
7.14BNEBohani (2)  12:49-12:49-  2831.4 70361mWCRNarsinghpur, Madhya Pradesh
7.15GARGadarwara (2)  13:00-13:00-  2844.3 70352mWCRNarsinghpur, Madhya Pradesh
7.16SCKRSalichauka Road (2)X  13:12-13:12-  2858.2 70355mWCRGadarwara, Madhya Pradesh
7.17JHTJunehta (2)X  13:21-13:21-  2868.3 70353mWCRState Highway 22, Madhya Pradesh
7.18BKHBankhedi (2)  13:26-13:26-  2874.3 70351mWCRBankheri, Madhya Pradesh
7.19PPIPipariya (3)X  13:42-13:42-  2893.7 70338mWCRPiparia, Madhya Pradesh
7.20SXFSobhapur (2)X  13:50-13:50-  2902.3 70338mWCRState Highway 22, Madhya Pradesh
7.21SGPSohagpur (2)  13:58-13:58-  2911.4 70340mWCRSohagpur, Madhya Pradesh
7.22GMDGuramkhedi (2)X  14:06-14:06-  2921.4 70337mWCRGuramkhedi, Madhya Pradesh
7.23BGTABagratawa (2)  14:17-14:17-  2934.5 70338mWCRBagra Tawa, Madhya Pradesh
7.24SQLSontalai (2)  14:23-14:23-  2941.3 70329mWCRItarsi, Madhya Pradesh
7.25GROGurra (2)  14:31-14:31-  2950.3 70327mWCRItarsi, Madhya Pradesh
8ETItarsi Junction (7)X  14:40-14:50-10m22960.964329mWCRItarsi 461111, Madhya Pradesh
8.1JUHJujharpur CabinX  14:51-14:51-  2962.1 64322mWCRItarsi, Madhya Pradesh
8.2JHPJujharpur  14:53-14:53-  2964.4 64328mCRItarsi, Madhya Pradesh
8.3KRTHKiratgarh (2)  15:00-15:00-  2971.6 64369mCRItarsi, Madhya Pradesh
8.4KSLAKesla (2)  15:05-15:05-  2977.3 64410mCRNH69, Madhya Pradesh
8.5TAKUTaku (2)X  15:11-15:11-  2983.4 64390mCRItarsi, Madhya Pradesh
8.6SAHLSaheli (2)  15:15-15:15-  2987.4 64388mCRItarsi, Madhya Pradesh
8.7KQEKala Akhar (2)X  15:21-15:21-  2994.0 64376mCRItarsi, Madhya Pradesh
8.8POXPola Patthar (2)  15:27-15:27-  21000.3 64392mCRBetul, Madhya Pradesh
8.9DOHDhodramohar (2)  15:35-15:35-  21008.6 64376mCRBetul, Madhya Pradesh
8.10MGRDMagardoh (2)  15:40-15:40-  21014.3 64393mCRBetul, Madhya Pradesh
8.11BBTRBarbatpur (3)  15:45-15:45-  21019.7 64394mCRBetul, Madhya Pradesh
8.12GDYAGhoradongri (3)X  15:56-15:56-  21031.3 64 CRBetul, Madhya Pradesh
8.13DHQDharakhoh (2)X  16:11-16:11-  21046.4 64482mCRBetul, Madhya Pradesh
8.14MJYMaramjhiri (2)  16:23-16:23-  21059.2 64642mCRBetul, Madhya Pradesh
8.15BZUBetul (3)  16:30-16:30-  21067.2 64644mCRBetul, Madhya Pradesh
8.16MALKMalkapur Road (1)X  16:36-16:36-  21073.6 64668mCRBetul, Madhya Pradesh
8.17BYSBarsali (2)X  16:43-16:43-  21080.3 64699mCRAmla, Madhya Pradesh
8.18AMLAAmla Junction (5)  16:52-16:52-  21090.1 64733mCRAmla Distt. Betul, Madhya Pradesh
8.19JKRJaulkhera (2)  17:03-17:03-  21101.8 64759mCRNH 69, Madhya Pradesh
8.20MTYMultai (2)  17:13-17:13-  21113.0 64762mCRMultai, Madhya Pradesh
8.21HTNHatna Pur (2)  17:22-17:22-  21122.4 64730mCRNH 69, Madhya Pradesh
8.22CCDChichonda (3)X  17:28-17:28-  21128.2 64703mCRNH 69 District Chhindwara, Madhya Pradesh
8.23GDKPGhundankhapa (2)X  17:36-17:36-  21137.4 64611mCRMohi, Madhya Pradesh
8.24TEOTeegaon (2)  17:43-17:43-  21144.9 64 CRBetul, Madhya Pradesh
8.25PARPandhurna (2)  17:52-17:52-  21153.7 64481mCRDistt: Chhindwara, Madhya Pradesh
8.26DDMTDarimeta (2)X  18:00-18:00-  21162.3 64473mCRNarkher, Maharashtra
8.27NRKRNarkher Junction (4)  18:09-18:09-  21172.1 64411mCRNarkher, Maharashtra
8.28TNHTinkheda (2)XO  18:16-18:16-  21179.1 64415mCRSH 246, Maharashtra
8.29KLBAKalambha (2)  18:23-18:23-  21187.1 64406mCRSH 248, Maharashtra
8.30KATLKatol (2)  18:33-18:33-  21197.2 64 CRKatol, Maharashtra
8.31MERMetpanjra (3)  18:41-18:41-  21206.4 64438mCRSH 248, Maharashtra
8.32SNKBSonkhamb (2)X  18:48-18:48-  21213.4 64403mCRSH 248, Maharashtra
8.33KOHLKohli (2)  18:56-18:56-  21221.7 64368mCRSH 250, Maharashtra
8.34KSWRKalmeshwar (2)X  19:07-19:07-  21234.0 64336mCRKalameshwar, Maharashtra
8.35BWRABharatwada (2)  19:17-19:17-  21244.6 64322mCRNagpur, Maharashtra
8.36GNQGodhani (2)  19:23-19:23-  21251.0 64312mCRNagpur, Maharashtra
9NGPNagpur Junction (8)X  19:35 19:30-19:45 19:40-10m221258.154314mCRNagpur 440001, Maharashtra
9.1MIBNagpur Moti Bagh (1)X  19:41-19:41-  21258.9 54309mCRNagpur, Maharashtra
9.2AJNIAjni (3)  19:43-19:43-  21261.1 54310mCRNagpur 440003, Maharashtra
9.3KRIKhapri (2)X  19:54-19:54-  21270.4 54312mCRNagpur, Maharashtra
9.4GMGGumgaon (2)  20:01-20:01-  21276.9 54302mCRNagpur, Maharashtra
9.5BTBRButi Bori (4)  20:11-20:11-  21285.7 54269mCRButi Bori, Maharashtra
9.6BOKBorkhediX  20:19-20:19-  21293.5 54268mCRWardha, Maharashtra
9.7SNISindi (2)  20:32-20:32-  21305.0 54258mCRWardha, Maharashtra
9.8TGPTuljapur (2)  20:41-20:41-  21312.9 54259mCRTuljapur, Maharashtra
9.9SLORSeloo Road  20:52-20:52-  21323.0 54256mCRMSH3, Maharashtra
9.10VADRWarud  21:01-21:01-  21330.8 54261mCRSewagram, Maharashtra
9.11SEGMSewagram Junction (5)  21:05-21:05-  21334.3 54279mCRWardha, Maharashtra
9.12CHJCChitoda  21:08-21:08-  21337.6 54265mCRChitoda, Maharashtra
9.13BPKBhugaon (3)  21:16-21:16-  21344.6 54267mCRWardha, Maharashtra
9.14SNNSonegaon (2)  21:24-21:24-  21351.1 54262mCRWardha, Maharashtra
9.15WGWagholi (2)  21:33-21:33-  21359.6 54238mCRWagholi, Maharashtra
9.16HGTHinganghat (3)  21:42-21:42-  21367.4 54228mCRHinganghat, Maharashtra
9.17YNAYenor  21:48-21:48-  21372.7 54221mCRMumbai, Maharashtra
9.18NGINagri  22:00-22:00-  21384.2 54230mCRHinganghat, Maharashtra
9.19CKNIChikni Road (2)X  22:13-22:13-  21395.9 54211mCRChandrapur, Maharashtra
9.20WRRWarora (2)  22:25-22:25-  21406.5 54214mCRWarora, Maharashtra
10MJRIMajri Junction (3)X  22:39-22:40-1m--21418.929198mCRDist. Chandrapur, Maharashtra
10.1MJKNMajri Khadan  22:51-22:51-  21424.4 29195mCRPatala, Maharashtra
10.2WANIWani (1)  23:06-23:06-  21431.8 29212mCRWani, Maharashtra
10.3KAYRKayar  23:51-23:51-  21453.6 29231mCRState Highway 233, Maharashtra
10.4LNTLingti  00:50-00:50-  31482.4 29227mCRState Highway 234, Maharashtra
10.5PMKTPimpal Khuti (1)  01:22-01:22-  31498.3 29230mCRPimpalkhuti, Maharashtra
11ADBAdilabad (3)  02:05-02:10-5m131519.462248mSCRAdilabad, Telangana
11.1UMMUmram  02:21-02:21-  31530.3 62286mSCRAdilabad Dist, Telangana
11.2TLMGTalmadugu  02:26-02:26-  31535.5 62299mSCRAdilabad Dist, Telangana
11.3KSAEKosai  02:32-02:32-  31542.2 62329mSCRAdilabad Dist., Telangana
11.4ABXAmbari  02:46-02:46-  31556.7 62329mSCRKinwat, Maharashtra
12KNVTKinwat (2)  02:54-02:55-1m--31564.761319mSCRKinwat, Maharashtra
12.1BHBKBodhadi Bujrug  03:09-03:09-  31579.4 61357mSCRKinwat, Maharashtra
12.2DHNRDhanora Deccan  03:24-03:24-  31594.0 61416mSCRKinwat, Maharashtra
12.3MHMBMahimba  03:31-03:31-  31601.3 61404mSCRNanded, Maharashtra
13SHSKSahasrakund  03:39-03:40-1m--31609.549402mSCRNanded, Maharashtra
13.1JXNJironaX  03:48-03:48-  31615.7 49390mSCRNanded, Maharashtra
14HEMHimayatnagar new halt!!  03:59-04:00-1m--31625.037398mSCRNanded, Maharashtra
14.1KDBRKhadki Bazar  04:06-04:06-  31628.5 37402mSCRMSH 3, Maharashtra
14.2JLGJalgaon Deccan  04:14-04:14-  31633.7 37413mSCRMSH 3, Maharashtra
14.3PRWAParwakhurd  04:20-04:20-  31637.2 37410mSCRMSH 3, Maharashtra
14.4HDGRHadgaon Road  04:30-04:30-  31643.1 37421mSCRNanded, Maharashtra
14.5DVNDevthana  04:49-04:49-  31654.8 37440mSCRNanded, Maharashtra
14.6TBUTharban  04:52-04:52-  31657.0 37431mSCRMSH 3, Maharashtra
14.7BOKRBhokar  04:59-04:59-  31661.2 37460mSCRBhokar, Maharashtra
14.8BMBEBimbari  05:10-05:10-  31668.2 37463mSCRBhokar, Maharashtra
14.9JMBLJambhali  05:18-05:18-  31672.7 37434mSCRBhokar, Maharashtra
14.10MUEMudkhed Junction (4)X  05:34-05:34-  31682.3 37378mSCRMudkhed, Maharashtra
14.11MGCMugat  05:48-05:48-  31691.5 37360mSCRHuzur Sahib Nanded, Maharashtra
14.12PARDPathrad  05:54-05:54-  31694.8 37363mSCRHuzur Sahib Nanded, Maharashtra
14.13MTDIMaltekdi  06:05-06:05-  31701.9 37362mSCRNanded, Maharashtra
15NEDHazur Sahib Nanded (4)X  06:10-06:15-5m--31704.733366mSCRNanded, Maharashtra
15.1WNGWanegaon  06:27-06:27-  31711.1 33371mSCRChudawa, Maharashtra
15.2LBGLimbgaon (2)  06:35-06:35-  31715.8 33390mSCRHuzur Sahib Nanded, Maharashtra
15.3CRUChudawa (1)  06:52-06:52-  31725.4 33392mSCRHingoli, Maharashtra
16PAUPurna Junction (4)  07:10----31735.3-384mSCRPurna, Maharashtra
Scroll to Top
Scroll to Bottom